Location: Mannheim
(49.4880°N, 8.4650°E)
Time: 04:36:13
(UTC+02:00)

ACS3 Solar Sail - Pass Details

Date: 25 September 2024
Orbit: 963 x 1036 km, 97.4° (Epoch: 04 October)

Event Time Altitude Azimuth Distance (km) Brightness Sun altitude
Exits shadow 20:07:25 - 122° (ESE) 3,016 3.8 -9.0°
Reaches altitude 10° 20:07:58 10° 120° (ESE) 2,837 3.6 -9.1°
Maximum altitude 20:13:25 31° 61° (ENE) 1,744 2.7 -10.0°
Drops below altitude 10° 20:18:52 10° 3° (N) 2,833 4.3 -10.9°
Sets 20:21:39 0° 353° (N) 3,780 5.1 -11.3°
